• In Belarus
  • List of Countries
  • For 7 days
  • Water Temperature
  • Satellite Maps
  • Weather Map
  • Weather Widgets
  • user-avatar
    Login

    Hourly Weather Tonhe

    Today, 21 August, Tuesday

    Time Temperature Precipitation Wind Pressure Humidity
    00:00 +25°C° 0 mm 5 mps 745 mmHg 87%
    01:00 +25°C° 0 mm 5 mps 745 mmHg 88%
    02:00 +25°C° 0 mm 5 mps 745 mmHg 88%
    03:00 +25°C° 0 mm 5 mps 744 mmHg 87%
    04:00 +25°C° 0 mm 5 mps 744 mmHg 86%
    05:00 +25°C° 0 mm 5 mps 744 mmHg 85%
    06:00 +25°C° 0 mm 5 mps 744 mmHg 83%
    07:00 +27°C° 0.2 mm 6 mps 744 mmHg 76%
    08:00 +28°C° 0.2 mm 6 mps 744 mmHg 70%
    09:00 +29°C° 0 mm 6 mps 744 mmHg 65%
    10:00 +29°C° 2 mm 6 mps 744 mmHg 69%
    11:00 +30°C° 2 mm 5 mps 744 mmHg 73%
    12:00 +30°C° 2 mm 4 mps 744 mmHg 77%
    13:00 +30°C° 2.4 mm 4 mps 744 mmHg 78%
    14:00 +30°C° 2.4 mm 4 mps 744 mmHg 79%
    15:00 +30°C° 0 mm 4 mps 744 mmHg 80%
    16:00 +29°C° 0.7 mm 3 mps 745 mmHg 81%
    17:00 +29°C° 0.7 mm 3 mps 745 mmHg 82%
    18:00 +29°C° 0.7 mm 3 mps 745 mmHg 82%
    19:00 +28°C° 0.3 mm 3 mps 745 mmHg 86%
    20:00 +26°C° 0.3 mm 3 mps 745 mmHg 90%
    21:00 +25°C° 0.3 mm 3 mps 746 mmHg 94%
    22:00 +25°C° 0 mm 2 mps 746 mmHg 94%
    23:00 +25°C° 0 mm 2 mps 746 mmHg 93%

    Tomorrow, 22 August, Wednesday

    Time Temperature Precipitation Wind Pressure Humidity
    00:00 +25°C° 0 mm 2 mps 746 mmHg 93%
    01:00 +25°C° 0 mm 2 mps 746 mmHg 92%
    02:00 +25°C° 0 mm 2 mps 746 mmHg 91%
    03:00 +25°C° 0 mm 2 mps 746 mmHg 90%
    04:00 +25°C° 0 mm 2 mps 746 mmHg 90%
    05:00 +25°C° 0 mm 2 mps 747 mmHg 90%
    06:00 +25°C° 0 mm 2 mps 747 mmHg 91%
    07:00 +27°C° 0 mm 2 mps 747 mmHg 85%
    08:00 +29°C° 0 mm 2 mps 747 mmHg 79%
    09:00 +32°C° 0 mm 2 mps 747 mmHg 73%
    10:00 +33°C° 0 mm 3 mps 747 mmHg 69%
    11:00 +34°C° 0 mm 3 mps 747 mmHg 66%
    12:00 +35°C° 0 mm 4 mps 747 mmHg 63%
    13:00 +35°C° 0.2 mm 4 mps 747 mmHg 65%
    14:00 +35°C° 0.2 mm 4 mps 746 mmHg 67%
    15:00 +35°C° 0.2 mm 4 mps 746 mmHg 69%
    16:00 +34°C° 0.1 mm 4 mps 746 mmHg 75%
    17:00 +33°C° 0.1 mm 4 mps 746 mmHg 81%
    18:00 +31°C° 0.1 mm 3 mps 746 mmHg 86%
    19:00 +29°C° 0.1 mm 3 mps 746 mmHg 90%
    20:00 +28°C° 0.1 mm 3 mps 747 mmHg 93%
    21:00 +27°C° 0.1 mm 2 mps 747 mmHg 96%
    22:00 +27°C° 0 mm 2 mps 747 mmHg 96%
    23:00 +27°C° 0 mm 2 mps 747 mmHg 96%

    Day after tomorrow, 23 August, Thursday

    Time Temperature Precipitation Wind Pressure Humidity
    00:00 +27°C° 0 mm 1 mps 746 mmHg 97%
    01:00 +27°C° 0.3 mm 2 mps 746 mmHg 97%
    02:00 +27°C° 0.3 mm 2 mps 746 mmHg 97%
    03:00 +26°C° 0.3 mm 2 mps 746 mmHg 98%
    04:00 +27°C° 0.6 mm 2 mps 746 mmHg 98%
    05:00 +27°C° 0.6 mm 2 mps 746 mmHg 98%
    06:00 +27°C° 0.6 mm 3 mps 745 mmHg 98%
    07:00 +27°C° 0.7 mm 3 mps 745 mmHg 97%
    08:00 +27°C° 0.7 mm 3 mps 746 mmHg 97%
    09:00 +28°C° 0.7 mm 3 mps 746 mmHg 96%
    10:00 +28°C° 0.9 mm 4 mps 745 mmHg 94%
    11:00 +29°C° 0.9 mm 4 mps 745 mmHg 92%
    12:00 +29°C° 0.9 mm 4 mps 745 mmHg 90%
    13:00 +29°C° 0.6 mm 5 mps 744 mmHg 88%
    14:00 +30°C° 0.6 mm 6 mps 743 mmHg 86%
    15:00 +30°C° 0.6 mm 6 mps 743 mmHg 84%
    16:00 +29°C° 0.9 mm 7 mps 742 mmHg 87%
    17:00 +29°C° 0.9 mm 7 mps 742 mmHg 90%
    18:00 +28°C° 0.9 mm 8 mps 741 mmHg 93%
    19:00 +28°C° 1.1 mm 9 mps 741 mmHg 94%
    20:00 +28°C° 1.1 mm 9 mps 741 mmHg 94%
    21:00 +28°C° 1.1 mm 10 mps 741 mmHg 94%
    22:00 +28°C° 1.8 mm 9 mps 740 mmHg 95%
    23:00 +28°C° 1.8 mm 9 mps 739 mmHg 95%

    24 August, Friday

    Time Temperature Precipitation Wind Pressure Humidity
    00:00 +28°C° 1.8 mm 9 mps 739 mmHg 96%
    01:00 +28°C° 0.9 mm 9 mps 738 mmHg 96%
    02:00 +28°C° 0.9 mm 8 mps 737 mmHg 96%
    03:00 +28°C° 0.9 mm 8 mps 736 mmHg 96%
    04:00 +28°C° 0.6 mm 8 mps 735 mmHg 96%
    05:00 +28°C° 0.6 mm 8 mps 734 mmHg 96%
    06:00 +28°C° 0.6 mm 9 mps 733 mmHg 96%
    07:00 +28°C° 0.6 mm 9 mps 732 mmHg 96%
    08:00 +28°C° 0.6 mm 10 mps 732 mmHg 96%
    09:00 +28°C° 0.6 mm 11 mps 732 mmHg 96%
    10:00 +28°C° 0.3 mm 11 mps 732 mmHg 94%
    11:00 +28°C° 0.3 mm 11 mps 732 mmHg 93%
    12:00 +28°C° 0.3 mm 11 mps 732 mmHg 92%
    13:00 +28°C° 0.1 mm 11 mps 733 mmHg 88%
    14:00 +29°C° 0.1 mm 11 mps 733 mmHg 85%
    15:00 +29°C° 0.1 mm 11 mps 734 mmHg 82%
    16:00 +29°C° 0 mm 10 mps 735 mmHg 83%
    17:00 +28°C° 0 mm 9 mps 736 mmHg 84%
    18:00 +28°C° 0 mm 8 mps 736 mmHg 85%
    19:00 +28°C° 0 mm 8 mps 738 mmHg 85%
    20:00 +27°C° 0 mm 7 mps 739 mmHg 85%
    21:00 +27°C° 0 mm 7 mps 740 mmHg 86%
    22:00 +27°C° 0 mm 7 mps 740 mmHg 86%
    23:00 +26°C° 0 mm 6 mps 741 mmHg 86%

    25 August, Saturday

    Time Temperature Precipitation Wind Pressure Humidity
    00:00 +26°C° 0 mm 6 mps 741 mmHg 86%
    01:00 +24°C° 0 mm 6 mps 741 mmHg 86%
    02:00 +25°C° 0 mm 5 mps 741 mmHg 86%
    03:00 +25°C° 0 mm 5 mps 742 mmHg 87%
    04:00 +25°C° 0 mm 5 mps 742 mmHg 87%
    05:00 +23°C° 0 mm 4 mps 742 mmHg 87%
    06:00 +23°C° 0 mm 4 mps 743 mmHg 88%
    07:00 +25°C° 0 mm 4 mps 743 mmHg 83%
    08:00 +26°C° 0 mm 4 mps 744 mmHg 79%
    09:00 +27°C° 0 mm 4 mps 744 mmHg 75%
    10:00 +28°C° 0 mm 4 mps 744 mmHg 70%
    11:00 +29°C° 0 mm 4 mps 744 mmHg 65%
    12:00 +30°C° 0 mm 4 mps 745 mmHg 60%
    13:00 +32°C° 0 mm 4 mps 744 mmHg 59%
    14:00 +31°C° 0 mm 3 mps 744 mmHg 57%
    15:00 +33°C° 0 mm 3 mps 744 mmHg 55%
    16:00 +31°C° 0 mm 3 mps 744 mmHg 60%
    17:00 +30°C° 0 mm 3 mps 744 mmHg 66%
    18:00 +29°C° 0 mm 2 mps 745 mmHg 71%
    19:00 +27°C° 0 mm 2 mps 745 mmHg 77%
    20:00 +26°C° 0 mm 2 mps 746 mmHg 82%
    21:00 +24°C° 0 mm 2 mps 746 mmHg 88%
    22:00 +24°C° 0 mm 2 mps 746 mmHg 88%
    23:00 +23°C° 0 mm 2 mps 746 mmHg 89%

    26 August, Sunday

    Time Temperature Precipitation Wind Pressure Humidity
    00:00 +23°C° 0 mm 2 mps 746 mmHg 90%
    01:00 +23°C° 0 mm 2 mps 746 mmHg 89%
    02:00 +23°C° 0 mm 2 mps 746 mmHg 88%
    03:00 +23°C° 0 mm 2 mps 746 mmHg 87%
    04:00 +23°C° 0.5 mm 2 mps 747 mmHg 89%
    05:00 +23°C° 0.5 mm 2 mps 747 mmHg 91%
    06:00 +21°C° 0.5 mm 2 mps 747 mmHg 93%
    07:00 +23°C° 0.5 mm 2 mps 748 mmHg 92%
    08:00 +23°C° 0.5 mm 2 mps 748 mmHg 91%
    09:00 +23°C° 0.5 mm 2 mps 749 mmHg 90%
    10:00 +24°C° 0.2 mm 2 mps 748 mmHg 85%
    11:00 +25°C° 0.2 mm 2 mps 748 mmHg 79%
    12:00 +26°C° 0.2 mm 2 mps 748 mmHg 74%
    13:00 +26°C° 0.1 mm 2 mps 748 mmHg 72%
    14:00 +27°C° 0.1 mm 3 mps 748 mmHg 71%
    15:00 +27°C° 0.1 mm 3 mps 747 mmHg 69%
    16:00 +27°C° 0 mm 3 mps 747 mmHg 73%
    17:00 +26°C° 0 mm 3 mps 748 mmHg 76%
    18:00 +26°C° 0 mm 3 mps 748 mmHg 80%
    19:00 +25°C° 0 mm 3 mps 748 mmHg 80%
    20:00 +25°C° 0 mm 3 mps 748 mmHg 81%
    21:00 +24°C° 0 mm 2 mps 749 mmHg 82%
    22:00 +24°C° 0.2 mm 3 mps 749 mmHg 84%
    23:00 +24°C° 0.2 mm 3 mps 748 mmHg 86%
    Show more